Date String (YYYY-MM-DD hh:mm:ss) UTC,Instrument flags,Ambient pressure (hPa),Sample flow (lpm),Bypass flow (lpm),Sample temperature (°C),Ambient temperature (°C),ASC tube jacket temperature (°C),LED temperature (°C),Box temperature (°C),Sample RH (%),Span deviation,Mass concentration (μg/m³),Mass concentration (μg/m³),Mass concentration (μg/m³)
DateTimeUTC,F1_M11,P_M11,Q1_M11,Q2_M11,T1_M11,T2_M11,T3_M11,T4_M11,T5_M11,U1_M11,ZSPAN_M11,X0_M11,X2_M11,X1_M11
2022-12-13 16:00:00,,0810.2,5.04,0.00,20.4,18.3,00.0,29.4,21.6,09.9,0000.0,0011.06,0005.39,0004.78
2022-12-13 16:01:00,,0810.1,4.95,0.00,20.3,18.4,00.0,29.4,21.6,10.0,0000.0,0011.42,0005.43,0004.80
2022-12-13 16:02:00,,0810.1,5.03,0.00,20.4,19.9,00.0,29.3,21.9,10.0,0000.0,0011.90,0005.45,0004.82
2022-12-13 16:03:00,,0810.1,4.98,0.00,20.5,21.0,00.0,29.3,22.3,09.9,0000.0,0011.67,0005.50,0004.82
2022-12-13 16:04:00,,0810.1,5.00,0.00,20.6,20.7,00.0,29.4,22.3,09.7,0000.0,0013.34,0005.54,0004.81
2022-12-13 16:05:00,,0810.0,5.00,0.00,20.5,19.6,00.0,29.4,22.0,09.7,0000.0,0014.02,0005.52,0004.82
2022-12-13 16:06:00,,0810.1,4.99,0.00,20.4,18.8,00.0,29.4,21.8,09.8,0000.0,0014.38,0005.56,0004.84
2022-12-13 16:07:00,,0810.1,5.05,0.00,20.3,18.3,00.0,29.4,21.6,09.8,0000.0,0014.78,0005.56,0004.86
2022-12-13 16:08:00,,0810.2,4.97,0.00,20.3,19.5,00.0,29.3,21.8,09.9,0000.0,0015.07,0005.56,0004.86
2022-12-13 16:09:00,,0810.1,5.02,0.00,20.5,20.8,00.0,29.3,22.1,09.8,0000.0,0015.39,0005.55,0004.86
2022-12-13 16:10:00,,0810.1,5.01,0.00,20.6,21.6,00.0,29.4,22.4,09.8,0000.0,0015.70,0005.57,0004.87
2022-12-13 16:11:00,,0810.1,4.97,0.00,20.7,21.1,00.0,29.4,22.4,09.8,0000.0,0015.92,0005.58,0004.87
2022-12-13 16:12:00,,0810.1,5.02,0.00,20.6,19.9,00.0,29.4,22.1,09.8,0000.0,0015.07,0005.56,0004.86
2022-12-13 16:13:00,,0810.1,4.96,0.00,20.5,19.0,00.0,29.4,21.8,09.8,0000.2,0014.45,0005.58,0004.87
2022-12-13 16:14:00,,0810.2,5.06,0.00,20.4,18.2,00.0,29.4,21.6,09.9,0001.7,0014.62,0005.54,0004.86
2022-12-13 16:15:00,,0810.3,4.99,0.00,20.3,18.1,00.0,29.4,21.6,09.9,0001.8,0014.64,0005.54,0004.86
2022-12-13 16:16:00,,0810.2,5.02,0.00,20.4,20.2,00.0,29.3,22.0,09.9,0002.0,0013.78,0005.56,0004.87
2022-12-13 16:17:00,,0810.2,4.98,0.00,20.6,21.3,00.0,29.3,22.3,09.6,0002.0,0013.14,0005.59,0004.86
2022-12-13 16:18:00,,0810.2,5.00,0.00,20.7,21.6,00.0,29.4,22.5,09.4,0002.6,0013.33,0005.60,0004.84
2022-12-13 16:19:00,,0810.2,5.02,0.00,20.7,20.5,00.0,29.4,22.3,09.5,0002.9,0013.34,0005.60,0004.81
2022-12-13 16:20:00,,0810.2,4.98,0.00,20.6,19.6,00.0,29.4,22.0,09.5,0002.8,0013.23,0005.63,0004.81
2022-12-13 16:21:00,,0810.2,5.00,0.00,20.5,18.8,00.0,29.4,21.8,09.4,0002.4,0013.99,0005.63,0004.79
2022-12-13 16:22:00,,0810.2,5.04,0.00,20.4,18.1,00.0,29.4,21.6,09.3,0002.3,0014.20,0005.65,0004.77
2022-12-13 16:23:00,,0810.2,4.97,0.00,20.3,18.5,00.0,29.3,21.6,09.2,0001.6,0013.44,0005.66,0004.74
2022-12-13 16:24:00,,0810.2,5.02,0.00,20.4,20.0,00.0,29.3,22.0,09.2,0001.1,0013.35,0005.61,0004.70
2022-12-13 16:25:00,,0810.2,4.98,0.00,20.6,21.1,00.0,29.3,22.3,09.2,-000.1,0013.88,0005.59,0004.65
2022-12-13 16:26:00,,0810.1,5.02,0.00,20.7,21.4,00.0,29.4,22.4,09.1,-001.0,0014.13,0005.58,0004.63
2022-12-13 16:27:00,,0810.1,4.97,0.00,20.6,20.4,00.0,29.4,22.2,09.1,0000.0,0014.51,0005.55,0004.61
2022-12-13 16:28:00,,0810.1,5.01,0.00,20.6,19.5,00.0,29.4,22.0,09.2,0000.0,0014.40,0005.53,0004.58
2022-12-13 16:29:00,,0810.1,5.00,0.00,20.5,18.7,00.0,29.4,21.7,09.3,0000.0,0013.94,0005.49,0004.56
2022-12-13 16:30:00,,0810.1,4.99,0.00,20.4,18.3,00.0,29.4,21.6,09.3,0000.0,0013.63,0005.46,0004.56
2022-12-13 16:31:00,,0810.2,5.02,0.00,20.4,19.5,00.0,29.3,21.9,09.3,0000.0,0013.69,0005.41,0004.53
2022-12-13 16:32:00,,0810.2,5.01,0.00,20.5,20.8,00.0,29.3,22.2,09.2,0000.0,0013.01,0005.39,0004.53
2022-12-13 16:33:00,,0810.2,4.97,0.00,20.6,21.0,00.0,29.4,22.3,09.2,0000.0,0012.83,0005.40,0004.51
2022-12-13 16:34:00,,0810.2,5.02,0.00,20.6,20.2,00.0,29.4,22.1,09.3,-000.5,0013.54,0005.39,0004.50
2022-12-13 16:35:00,,0810.1,5.01,0.00,20.5,19.3,00.0,29.4,21.8,09.5,-000.2,0013.68,0005.44,0004.50
2022-12-13 16:36:00,,0810.1,5.00,0.00,20.4,18.5,00.0,29.4,21.6,09.6,-000.0,0013.87,0005.49,0004.48
2022-12-13 16:37:00,,0810.2,4.99,0.00,20.3,18.3,00.0,29.3,21.5,09.7,0000.0,0015.28,0005.54,0004.44
2022-12-13 16:38:00,,0810.2,5.02,0.00,20.4,19.6,00.0,29.3,21.9,09.7,0000.0,0015.51,0005.50,0004.41
2022-12-13 16:39:00,,0810.2,4.99,0.00,20.5,20.9,00.0,29.3,22.2,09.7,-001.0,0015.34,0005.47,0004.38
2022-12-13 16:40:00,,0810.2,4.99,0.00,20.7,21.6,00.0,29.4,22.5,09.7,-001.3,0016.27,0005.49,0004.37
2022-12-13 16:41:00,,0810.2,5.00,0.00,20.7,20.7,00.0,29.4,22.3,09.6,-000.9,0016.32,0005.50,0004.34
2022-12-13 16:42:00,,0810.2,5.00,0.00,20.6,19.6,00.0,29.4,22.0,09.6,0000.0,0016.04,0005.50,0004.33
2022-12-13 16:43:00,,0810.2,5.01,0.00,20.5,18.7,00.0,29.4,21.7,09.7,0000.0,0016.79,0005.49,0004.31
2022-12-13 16:44:00,,0810.2,4.99,0.00,20.3,18.1,00.0,29.4,21.5,09.7,0000.0,0018.75,0005.51,0004.29
2022-12-13 16:45:00,,0810.3,5.01,0.00,20.3,18.8,00.0,29.3,21.7,09.7,0000.0,0018.79,0005.52,0004.28
2022-12-13 16:46:00,,0810.2,5.00,0.00,20.4,20.3,00.0,29.3,22.0,09.6,0000.0,0019.98,0005.50,0004.27
2022-12-13 16:47:00,,0810.2,5.01,0.00,20.6,21.2,00.0,29.3,22.3,09.6,0000.0,0020.46,0005.48,0004.26
2022-12-13 16:48:00,,0810.2,4.98,0.00,20.6,20.5,00.0,29.4,22.2,09.6,0000.0,0019.62,0005.49,0004.27
2022-12-13 16:49:00,,0810.1,5.01,0.00,20.5,19.4,00.0,29.4,21.9,09.7,0000.0,0019.57,0005.57,0004.28
2022-12-13 16:50:00,,0810.1,5.00,0.00,20.3,18.5,00.0,29.4,21.5,09.8,0000.0,0020.68,0005.60,0004.29
2022-12-13 16:51:00,,0810.2,4.99,0.00,20.2,18.3,00.0,29.3,21.5,10.0,0000.0,0021.07,0005.60,0004.31
2022-12-13 16:52:00,,0810.2,5.02,0.00,20.3,19.8,00.0,29.3,21.8,09.9,0000.0,0021.43,0005.59,0004.32
2022-12-13 16:53:00,,0810.2,4.98,0.00,20.5,21.0,00.0,29.3,22.2,09.7,0000.0,0021.42,0005.62,0004.33
2022-12-13 16:54:00,,0810.2,5.00,0.00,20.6,21.6,00.0,29.3,22.4,09.6,0000.0,0021.94,0005.62,0004.34
2022-12-13 16:55:00,,0810.2,5.03,0.00,20.6,20.6,00.0,29.4,22.2,09.6,0000.0,0022.15,0005.59,0004.35
2022-12-13 16:56:00,,0810.1,4.97,0.00,20.5,19.5,00.0,29.4,21.9,09.6,0000.0,0022.92,0005.62,0004.36
2022-12-13 16:57:00,,0810.1,5.04,0.00,20.4,18.5,00.0,29.4,21.7,09.7,-000.7,0022.14,0005.63,0004.37
2022-12-13 16:58:00,,0810.1,4.95,0.00,20.3,18.5,00.0,29.3,21.5,09.8,-000.3,0021.63,0005.62,0004.38
2022-12-13 16:59:00,,0810.1,5.02,0.00,20.4,19.9,00.0,29.3,21.9,09.8,-000.2,0022.15,0005.58,0004.38
